Saint George's, Grenada

2:57 AM AST on September 21, 2017 (GMT -0400)
True Blue | | Change Station

Elev 69 ft 12.01 °N, 61.77 °W | Updated 7 minutes ago

Partly Cloudy
Partly Cloudy
82.3 °F
Feels Like 92 °F
N
0.0
Wind Variable Wind from ESE
Gusts 5.0 mph

Today
High -- | Low -- °F
--% Chance of Precip.
Yesterday
High -- | Low -- °F
Precip. -- in
Pressure 29.86 in
Visibility 6.2 miles
Clouds Scattered Clouds 1800 ft
Heat Index 92 °F
Dew Point 78 °F
Humidity 87%
Rainfall 0.00 in
Snow Depth Not available.
5:56 AM 6:03 PM
New Moon, 1% visible
METAR TGPY 210600Z 08013KT 9999 SCT018 29/26 Q1011 NOSIG
Pressure 29.86 in
Visibility 6.2 miles
Clouds Scattered Clouds 1800 ft
Heat Index 92 °F
Dew Point 78 °F
Humidity 87%
Rainfall 0.00 in
Snow Depth Not available.
5:56 AM 6:03 PM
New Moon, 1% visible
METAR TGPY 210600Z 08013KT 9999 SCT018 29/26 Q1011 NOSIG

Get Severe Weather Alerts

Thanks for signing up!

Be on the lookout for a verification email in your inbox.

You'll start receiving the daily forecast at 6 AM.

×

10-Day Weather Forecast

No radar image for this location.
×

Almanac

Astronomy

Sep. 21, 2017 Rise Set
Actual Time
Civil Twilight
Nautical Twilight
Astronomical Twilight
Moon
Length of Visible Light
Length of Day
Tomorrow will be .
, % of the Moon is Illuminated

Today's Extremes

Country Highs Country Lows

Community

WunderPhotos

Category 6

Welcome to Category 6. This is the collective home for Weather Underground's featured writeups by Dr. Jeff Masters (right), Bob Henson (left), Chris Burt, and other regular contributors.

Nearby

Air Quality

  Air Quality AQ Index Pollutant
Not available.

Snow Depth

Station Depth Elevation

Earthquake Activity

City Distance Mag. Time & Date
Minimum magnitude displayed is 2.5.

Coastal Water Temperatures

Place Temperature

Stations

Nearby Weather Stations

Station Location Temp. Windchill Dew Point Humidity Wind Precip. Elev Updated Type